Time,TemperatureF,DewpointF,PressureIn,WindDirection,WindDirectionDegrees,WindSpeedMPH,WindSpeedGustMPH,Humidity,HourlyPrecipIn,Conditions,Clouds,dailyrainin,SoftwareType,DateUTC
2013-04-03 00:02:00,47.8,31.1,30.15,SSE,166,0.0,0.0,52,0.00,,,0.00,meteohub,2013-04-03 07:02:00,
2013-04-03 00:07:00,47.7,30.9,30.15,SSE,166,0.0,0.0,52,0.00,,,0.00,meteohub,2013-04-03 07:07:00,
2013-04-03 00:12:00,47.7,30.9,30.15,SSE,166,0.0,0.0,52,0.00,,,0.00,meteohub,2013-04-03 07:12:00,
2013-04-03 00:22:00,47.5,31.3,30.15,SSE,166,0.0,0.0,53,0.00,,,0.00,meteohub,2013-04-03 07:22:00,
2013-04-03 00:27:00,47.5,31.3,30.15,SSE,166,0.0,0.0,53,0.00,,,0.00,meteohub,2013-04-03 07:27:00,
2013-04-03 00:37:00,47.5,30.2,30.15,SSE,166,0.0,0.0,51,0.00,,,0.00,meteohub,2013-04-03 07:37:00,
2013-04-03 00:42:00,47.7,30.0,30.15,SSE,166,0.0,0.0,50,0.00,,,0.00,meteohub,2013-04-03 07:42:00,
2013-04-03 00:47:00,47.8,29.7,30.15,SSE,166,0.0,0.0,49,0.00,,,0.00,meteohub,2013-04-03 07:47:00,
2013-04-03 00:52:00,47.7,29.5,30.15,SSE,166,0.0,0.0,49,0.00,,,0.00,meteohub,2013-04-03 07:52:00,
2013-04-03 00:57:00,47.7,30.0,30.15,SSE,166,0.0,0.0,50,0.00,,,0.00,meteohub,2013-04-03 07:57:00,
2013-04-03 01:02:00,47.5,29.8,30.15,SSE,166,0.0,0.0,50,0.00,,,0.00,meteohub,2013-04-03 08:02:00,
2013-04-03 01:12:00,47.7,28.4,30.15,SSE,167,0.0,0.0,47,0.00,,,0.00,meteohub,2013-04-03 08:12:00,
2013-04-03 01:22:00,47.1,28.4,30.14,SSE,167,0.0,0.0,48,0.00,,,0.00,meteohub,2013-04-03 08:22:00,
2013-04-03 01:27:00,46.9,28.2,30.14,SSE,167,0.0,0.0,48,0.00,,,0.00,meteohub,2013-04-03 08:27:00,
2013-04-03 01:32:00,46.9,27.7,30.14,SSE,167,0.0,0.0,47,0.00,,,0.00,meteohub,2013-04-03 08:32:00,
2013-04-03 01:37:00,47.1,27.3,30.15,SSE,168,0.0,0.0,46,0.00,,,0.00,meteohub,2013-04-03 08:37:00,
2013-04-03 01:47:00,47.3,27.0,30.15,SSE,167,0.0,0.0,45,0.00,,,0.00,meteohub,2013-04-03 08:47:00,
2013-04-03 01:52:00,47.1,26.2,30.15,SSE,167,0.0,0.0,44,0.00,,,0.00,meteohub,2013-04-03 08:52:00,
2013-04-03 01:57:00,47.1,26.2,30.15,South,170,0.0,0.0,44,0.00,,,0.00,meteohub,2013-04-03 08:57:00,
2013-04-03 02:02:00,47.1,26.8,30.15,South,170,0.0,0.0,45,0.00,,,0.00,meteohub,2013-04-03 09:02:00,
2013-04-03 02:07:00,46.9,26.8,30.15,South,170,0.0,0.0,45,0.00,,,0.00,meteohub,2013-04-03 09:07:00,
2013-04-03 02:12:00,47.1,27.3,30.15,South,170,0.0,0.0,46,0.00,,,0.00,meteohub,2013-04-03 09:12:00,
2013-04-03 02:22:00,46.9,28.8,30.15,WSW,246,0.0,0.0,49,0.00,,,0.00,meteohub,2013-04-03 09:22:00,
2013-04-03 02:32:00,46.9,29.3,30.15,WSW,245,0.0,0.0,50,0.00,,,0.00,meteohub,2013-04-03 09:32:00,
2013-04-03 02:37:00,46.9,29.8,30.15,WSW,244,0.0,0.0,51,0.00,,,0.00,meteohub,2013-04-03 09:37:00,
2013-04-03 02:42:00,46.9,30.2,30.15,WSW,245,0.0,0.0,52,0.00,,,0.00,meteohub,2013-04-03 09:42:00,
2013-04-03 02:47:00,46.9,30.2,30.15,WSW,245,0.0,0.0,52,0.00,,,0.00,meteohub,2013-04-03 09:47:00,
2013-04-03 02:52:00,46.9,29.8,30.15,WSW,245,0.0,0.0,51,0.00,,,0.00,meteohub,2013-04-03 09:52:00,
2013-04-03 03:02:00,47.1,28.9,30.15,WSW,245,0.0,0.0,49,0.00,,,0.00,meteohub,2013-04-03 10:02:00,
2013-04-03 03:07:00,47.1,28.9,30.15,WSW,245,0.0,0.0,49,0.00,,,0.00,meteohub,2013-04-03 10:07:00,
2013-04-03 03:17:00,47.1,28.4,30.14,WSW,245,0.0,0.0,48,0.00,,,0.00,meteohub,2013-04-03 10:17:00,
2013-04-03 03:22:00,47.1,28.4,30.14,WSW,245,0.0,0.0,48,0.00,,,0.00,meteohub,2013-04-03 10:22:00,
2013-04-03 03:27:00,47.1,28.4,30.14,WSW,245,0.0,0.0,48,0.00,,,0.00,meteohub,2013-04-03 10:27:00,
2013-04-03 03:32:00,47.1,27.9,30.14,SW,226,0.0,0.0,47,0.00,,,0.00,meteohub,2013-04-03 10:32:00,
2013-04-03 03:37:00,47.1,28.4,30.14,SW,228,0.0,0.0,48,0.00,,,0.00,meteohub,2013-04-03 10:37:00,
2013-04-03 03:42:00,47.1,28.4,30.14,SW,226,0.0,0.0,48,0.00,,,0.00,meteohub,2013-04-03 10:42:00,
2013-04-03 03:47:00,46.9,28.2,30.13,SW,226,0.0,0.0,48,0.00,,,0.00,meteohub,2013-04-03 10:47:00,
2013-04-03 03:52:00,46.9,28.2,30.13,SSW,197,0.0,0.0,48,0.00,,,0.00,meteohub,2013-04-03 10:52:00,
2013-04-03 03:57:00,47.1,28.4,30.13,SW,225,0.0,0.0,48,0.00,,,0.00,meteohub,2013-04-03 10:57:00,
2013-04-03 04:02:00,47.1,28.4,30.13,SW,225,0.0,0.0,48,0.00,,,0.00,meteohub,2013-04-03 11:02:00,
2013-04-03 04:07:00,47.1,27.9,30.13,SSW,200,0.0,0.0,47,0.00,,,0.00,meteohub,2013-04-03 11:07:00,
2013-04-03 04:12:00,47.1,27.9,30.13,SSW,200,0.0,0.0,47,0.00,,,0.00,meteohub,2013-04-03 11:12:00,
2013-04-03 04:17:00,47.1,26.8,30.13,SSW,203,0.0,0.0,45,0.00,,,0.00,meteohub,2013-04-03 11:17:00,
2013-04-03 04:22:00,47.3,27.0,30.13,SW,217,0.0,0.0,45,0.00,,,0.00,meteohub,2013-04-03 11:22:00,
2013-04-03 04:32:00,47.1,25.7,30.13,SW,217,0.0,0.0,43,0.00,,,0.00,meteohub,2013-04-03 11:32:00,
2013-04-03 04:37:00,47.5,26.1,30.13,SW,217,0.0,0.0,43,0.00,,,0.00,meteohub,2013-04-03 11:37:00,
2013-04-03 04:47:00,47.7,25.7,30.13,SW,218,0.0,0.0,42,0.00,,,0.00,meteohub,2013-04-03 11:47:00,
2013-04-03 04:52:00,47.7,25.7,30.13,SW,214,0.0,0.0,42,0.00,,,0.00,meteohub,2013-04-03 11:52:00,
2013-04-03 04:57:00,47.7,25.7,30.13,SSW,211,0.0,0.0,42,0.00,,,0.00,meteohub,2013-04-03 11:57:00,
2013-04-03 05:02:00,47.7,25.7,30.13,SSW,212,0.0,0.0,42,0.00,,,0.00,meteohub,2013-04-03 12:02:00,
2013-04-03 05:07:00,47.7,25.7,30.13,South,180,0.0,0.0,42,0.00,,,0.00,meteohub,2013-04-03 12:07:00,
2013-04-03 05:12:00,47.7,26.2,30.14,South,173,0.0,0.0,43,0.00,,,0.00,meteohub,2013-04-03 12:12:00,
2013-04-03 05:22:00,47.5,26.1,30.14,South,174,0.0,0.0,43,0.00,,,0.00,meteohub,2013-04-03 12:22:00,
2013-04-03 05:27:00,47.8,25.9,30.14,ESE,113,0.0,0.0,42,0.00,,,0.00,meteohub,2013-04-03 12:27:00,
2013-04-03 05:32:00,48.4,26.4,30.14,ESE,115,0.0,0.0,42,0.00,,,0.00,meteohub,2013-04-03 12:32:00,
2013-04-03 05:37:00,48.4,26.4,30.14,SE,129,0.0,0.0,42,0.00,,,0.00,meteohub,2013-04-03 12:37:00,
2013-04-03 05:42:00,48.7,26.1,30.14,SE,129,0.0,0.0,41,0.00,,,0.00,meteohub,2013-04-03 12:42:00,
2013-04-03 05:47:00,48.7,26.6,30.14,SE,129,0.0,0.0,42,0.00,,,0.00,meteohub,2013-04-03 12:47:00,
2013-04-03 05:52:00,48.7,26.6,30.14,ESE,113,0.0,0.0,42,0.00,,,0.00,meteohub,2013-04-03 12:52:00,
2013-04-03 05:57:00,49.3,27.1,30.14,ESE,108,0.0,0.0,42,0.00,,,0.00,meteohub,2013-04-03 12:57:00,
2013-04-03 06:02:00,49.5,27.3,30.14,ESE,113,0.0,0.0,42,0.00,,,0.00,meteohub,2013-04-03 13:02:00,
2013-04-03 06:07:00,49.5,27.3,30.14,SE,127,0.0,0.0,42,0.00,,,0.00,meteohub,2013-04-03 13:07:00,
2013-04-03 06:12:00,49.5,27.3,30.14,SE,124,0.0,0.0,42,0.00,,,0.00,meteohub,2013-04-03 13:12:00,
2013-04-03 06:17:00,49.6,27.5,30.14,SE,127,0.0,0.0,42,0.00,,,0.00,meteohub,2013-04-03 13:17:00,
2013-04-03 06:22:00,49.8,27.7,30.14,ESE,105,0.0,0.0,42,0.00,,,0.00,meteohub,2013-04-03 13:22:00,
2013-04-03 06:27:00,49.6,27.5,30.14,ESE,106,0.0,0.0,42,0.00,,,0.00,meteohub,2013-04-03 13:27:00,
2013-04-03 06:32:00,49.6,27.5,30.14,ESE,108,0.0,0.0,42,0.00,,,0.00,meteohub,2013-04-03 13:32:00,
2013-04-03 06:42:00,49.5,27.3,30.14,ESE,120,0.0,0.0,42,0.00,,,0.00,meteohub,2013-04-03 13:42:00,
2013-04-03 06:47:00,49.6,28.0,30.14,ESE,122,0.0,0.0,43,0.00,,,0.00,meteohub,2013-04-03 13:47:00,
2013-04-03 06:52:00,49.8,27.7,30.15,SE,132,0.0,0.0,42,0.00,,,0.00,meteohub,2013-04-03 13:52:00,
2013-04-03 06:57:00,50.2,28.0,30.15,SSE,148,0.0,0.0,42,0.00,,,0.00,meteohub,2013-04-03 13:57:00,
2013-04-03 07:07:00,50.4,28.2,30.15,SSE,148,0.0,0.0,42,0.00,,,0.00,meteohub,2013-04-03 14:07:00,
2013-04-03 07:12:00,50.7,29.1,30.15,SSE,148,0.0,0.0,43,0.00,,,0.00,meteohub,2013-04-03 14:12:00,
2013-04-03 07:17:00,51.1,28.2,30.15,ESE,113,0.0,0.0,41,0.00,,,0.00,meteohub,2013-04-03 14:17:00,
2013-04-03 07:22:00,52.3,29.3,30.15,ESE,115,0.0,0.0,41,0.00,,,0.00,meteohub,2013-04-03 14:22:00,
2013-04-03 07:27:00,53.4,29.1,30.16,North,4,1.0,2.0,39,0.00,,,0.00,meteohub,2013-04-03 14:27:00,
2013-04-03 07:32:00,54.3,30.6,30.16,North,11,0.0,2.0,40,0.00,,,0.00,meteohub,2013-04-03 14:32:00,
2013-04-03 07:37:00,54.9,29.7,30.16,NNE,12,0.0,2.0,38,0.00,,,0.00,meteohub,2013-04-03 14:37:00,
2013-04-03 07:42:00,55.8,31.8,30.16,NNE,15,0.0,2.0,40,0.00,,,0.00,meteohub,2013-04-03 14:42:00,
2013-04-03 07:47:00,56.7,30.7,30.16,NNE,15,0.0,0.0,37,0.00,,,0.00,meteohub,2013-04-03 14:47:00,
2013-04-03 07:52:00,56.8,32.2,30.16,East,80,0.0,0.0,39,0.00,,,0.00,meteohub,2013-04-03 14:52:00,
2013-04-03 07:57:00,57.7,32.9,30.16,ESE,104,0.0,0.0,39,0.00,,,0.00,meteohub,2013-04-03 14:57:00,
2013-04-03 08:02:00,58.3,32.2,30.16,ESE,104,0.0,0.0,37,0.00,,,0.00,meteohub,2013-04-03 15:02:00,
2013-04-03 08:07:00,59.2,32.2,30.16,ESE,104,0.0,0.0,36,0.00,,,0.00,meteohub,2013-04-03 15:07:00,
2013-04-03 08:12:00,58.6,33.8,30.16,ESE,104,0.0,0.0,39,0.00,,,0.00,meteohub,2013-04-03 15:12:00,
2013-04-03 08:17:00,58.6,33.8,30.15,ESE,104,0.0,0.0,39,0.00,,,0.00,meteohub,2013-04-03 15:17:00,
2013-04-03 08:22:00,59.7,36.5,30.16,ESE,111,0.0,0.0,42,0.00,,,0.00,meteohub,2013-04-03 15:22:00,
2013-04-03 08:27:00,60.4,36.0,30.16,ESE,111,0.0,0.0,40,0.00,,,0.00,meteohub,2013-04-03 15:27:00,
2013-04-03 08:32:00,61.5,37.0,30.15,ESE,111,0.0,0.0,40,0.00,,,0.00,meteohub,2013-04-03 15:32:00,
2013-04-03 08:37:00,61.3,34.9,30.16,East,88,0.0,0.0,37,0.00,,,0.00,meteohub,2013-04-03 15:37:00,
2013-04-03 08:47:00,62.4,35.1,30.16,ESE,117,0.0,0.0,36,0.00,,,0.00,meteohub,2013-04-03 15:47:00,
2013-04-03 08:52:00,62.8,34.7,30.16,SE,132,0.0,0.0,35,0.00,,,0.00,meteohub,2013-04-03 15:52:00,
2013-04-03 08:57:00,63.0,37.0,30.16,SSE,159,0.0,0.0,38,0.00,,,0.00,meteohub,2013-04-03 15:57:00,
2013-04-03 09:07:00,61.5,35.1,30.16,SSW,210,0.0,1.0,37,0.00,,,0.00,meteohub,2013-04-03 16:07:00,
2013-04-03 09:17:00,61.3,33.4,30.15,NW,304,2.0,3.0,35,0.00,,,0.00,meteohub,2013-04-03 16:17:00,
2013-04-03 09:22:00,60.6,31.3,30.15,WNW,296,0.0,3.0,33,0.00,,,0.00,meteohub,2013-04-03 16:22:00,
2013-04-03 09:32:00,61.5,30.6,30.15,North,11,1.0,5.0,31,0.00,,,0.00,meteohub,2013-04-03 16:32:00,
2013-04-03 09:42:00,63.1,32.0,30.15,NE,39,0.0,4.0,31,0.00,,,0.00,meteohub,2013-04-03 16:42:00,
2013-04-03 09:47:00,63.0,30.2,30.15,NW,319,0.0,3.0,29,0.00,,,0.00,meteohub,2013-04-03 16:47:00,
2013-04-03 09:57:00,61.2,29.5,30.15,NNE,15,1.0,6.0,30,0.00,,,0.00,meteohub,2013-04-03 16:57:00,
2013-04-03 10:07:00,61.5,28.9,30.15,NE,39,2.0,6.0,29,0.00,,,0.00,meteohub,2013-04-03 17:07:00,
2013-04-03 10:12:00,61.9,30.9,30.15,SW,214,2.0,3.0,31,0.00,,,0.00,meteohub,2013-04-03 17:12:00,
2013-04-03 10:17:00,63.3,32.2,30.15,SSE,162,1.0,3.0,31,0.00,,,0.00,meteohub,2013-04-03 17:17:00,
2013-04-03 10:22:00,64.9,32.7,30.15,SE,138,1.0,4.0,30,0.00,,,0.00,meteohub,2013-04-03 17:22:00,
2013-04-03 10:27:00,65.8,31.8,30.15,SE,132,2.0,4.0,28,0.00,,,0.00,meteohub,2013-04-03 17:27:00,
2013-04-03 10:32:00,65.3,31.3,30.15,South,187,6.0,6.0,28,0.00,,,0.00,meteohub,2013-04-03 17:32:00,
2013-04-03 10:37:00,65.1,33.8,30.15,SE,129,0.0,6.0,31,0.00,,,0.00,meteohub,2013-04-03 17:37:00,
2013-04-03 10:42:00,65.3,31.3,30.14,NNE,23,0.0,6.0,28,0.00,,,0.00,meteohub,2013-04-03 17:42:00,
2013-04-03 10:47:00,65.7,31.6,30.14,SSW,207,2.0,7.0,28,0.00,,,0.00,meteohub,2013-04-03 17:47:00,
2013-04-03 10:57:00,65.3,32.2,30.14,South,188,2.0,6.0,29,0.00,,,0.00,meteohub,2013-04-03 17:57:00,
2013-04-03 11:02:00,65.3,32.2,30.14,East,101,3.0,6.0,29,0.00,,,0.00,meteohub,2013-04-03 18:02:00,
2013-04-03 11:12:00,65.5,34.0,30.14,ESE,111,3.0,6.0,31,0.00,,,0.00,meteohub,2013-04-03 18:12:00,
2013-04-03 11:17:00,65.7,33.4,30.15,SE,124,2.0,6.0,30,0.00,,,0.00,meteohub,2013-04-03 18:17:00,
2013-04-03 11:22:00,65.5,33.3,30.15,SE,146,2.0,6.0,30,0.00,,,0.00,meteohub,2013-04-03 18:22:00,
2013-04-03 11:27:00,65.7,35.8,30.15,South,186,2.0,8.0,33,0.00,,,0.00,meteohub,2013-04-03 18:27:00,
2013-04-03 11:32:00,65.5,34.9,30.15,SSE,165,4.0,8.0,32,0.00,,,0.00,meteohub,2013-04-03 18:32:00,
2013-04-03 11:42:00,64.8,30.9,30.14,SE,127,3.0,7.0,28,0.00,,,0.00,meteohub,2013-04-03 18:42:00,
2013-04-03 11:52:00,64.9,32.0,30.14,ESE,105,3.0,9.0,29,0.00,,,0.00,meteohub,2013-04-03 18:52:00,
2013-04-03 12:02:00,66.4,34.0,30.14,NW,323,1.0,7.0,30,0.00,,,0.00,meteohub,2013-04-03 19:02:00,
2013-04-03 12:12:00,66.4,34.9,30.14,East,79,2.0,7.0,31,0.00,,,0.00,meteohub,2013-04-03 19:12:00,
2013-04-03 12:17:00,66.9,34.5,30.14,SE,143,2.0,7.0,30,0.00,,,0.00,meteohub,2013-04-03 19:17:00,
2013-04-03 12:27:00,66.6,33.3,30.14,ESE,121,2.0,5.0,29,0.00,,,0.00,meteohub,2013-04-03 19:27:00,
2013-04-03 12:32:00,66.4,33.1,30.13,NE,45,3.0,5.0,29,0.00,,,0.00,meteohub,2013-04-03 19:32:00,
2013-04-03 12:37:00,66.2,33.1,30.13,South,174,1.0,6.0,29,0.00,,,0.00,meteohub,2013-04-03 19:37:00,
2013-04-03 12:42:00,66.4,33.1,30.13,WSW,253,0.0,6.0,29,0.00,,,0.00,meteohub,2013-04-03 19:42:00,
2013-04-03 12:52:00,67.1,34.7,30.12,West,281,1.0,3.0,30,0.00,,,0.00,meteohub,2013-04-03 19:52:00,
2013-04-03 12:57:00,67.3,34.7,30.12,SE,144,3.0,5.0,30,0.00,,,0.00,meteohub,2013-04-03 19:57:00,
2013-04-03 13:02:00,67.5,35.8,30.12,SE,132,1.0,6.0,31,0.00,,,0.00,meteohub,2013-04-03 20:02:00,
2013-04-03 13:07:00,67.6,35.1,30.12,SSE,153,1.0,6.0,30,0.00,,,0.00,meteohub,2013-04-03 20:07:00,
2013-04-03 13:12:00,67.6,37.6,30.12,NNW,335,3.0,6.0,33,0.00,,,0.00,meteohub,2013-04-03 20:12:00,
2013-04-03 13:17:00,67.1,34.7,30.12,NW,316,2.0,5.0,30,0.00,,,0.00,meteohub,2013-04-03 20:17:00,
2013-04-03 13:22:00,67.1,34.7,30.11,ESE,113,1.0,5.0,30,0.00,,,0.00,meteohub,2013-04-03 20:22:00,
2013-04-03 13:32:00,66.9,34.5,30.11,SE,127,0.0,5.0,30,0.00,,,0.00,meteohub,2013-04-03 20:32:00,
2013-04-03 13:42:00,67.6,35.1,30.10,SW,228,1.0,6.0,30,0.00,,,0.00,meteohub,2013-04-03 20:42:00,
2013-04-03 13:47:00,67.8,35.2,30.10,SSE,155,2.0,7.0,30,0.00,,,0.00,meteohub,2013-04-03 20:47:00,
2013-04-03 13:52:00,68.4,36.5,30.10,SSE,165,3.0,7.0,31,0.00,,,0.00,meteohub,2013-04-03 20:52:00,
2013-04-03 14:02:00,67.8,36.1,30.10,NE,37,3.0,7.0,31,0.00,,,0.00,meteohub,2013-04-03 21:02:00,
2013-04-03 14:07:00,67.6,36.7,30.10,SSW,203,2.0,7.0,32,0.00,,,0.00,meteohub,2013-04-03 21:07:00,
2013-04-03 14:12:00,68.0,35.4,30.10,ESE,105,3.0,10.0,30,0.00,,,0.00,meteohub,2013-04-03 21:12:00,
2013-04-03 14:17:00,67.8,34.3,30.10,NNE,24,5.0,10.0,29,0.00,,,0.00,meteohub,2013-04-03 21:17:00,
2013-04-03 14:27:00,67.1,34.7,30.09,WSW,243,5.0,10.0,30,0.00,,,0.00,meteohub,2013-04-03 21:27:00,
2013-04-03 14:32:00,67.3,34.7,30.09,West,269,5.0,10.0,30,0.00,,,0.00,meteohub,2013-04-03 21:32:00,
2013-04-03 14:37:00,67.3,34.7,30.09,South,176,1.0,9.0,30,0.00,,,0.00,meteohub,2013-04-03 21:37:00,
2013-04-03 14:42:00,67.5,35.8,30.09,SSE,161,6.0,9.0,31,0.00,,,0.00,meteohub,2013-04-03 21:42:00,
2013-04-03 14:47:00,66.7,34.3,30.09,SE,124,4.0,9.0,30,0.00,,,0.00,meteohub,2013-04-03 21:47:00,
2013-04-03 14:52:00,66.9,34.5,30.09,WSW,255,3.0,9.0,30,0.00,,,0.00,meteohub,2013-04-03 21:52:00,
2013-04-03 14:57:00,66.6,34.2,30.09,East,101,2.0,9.0,30,0.00,,,0.00,meteohub,2013-04-03 21:57:00,
2013-04-03 15:02:00,66.2,33.8,30.09,SE,136,4.0,9.0,30,0.00,,,0.00,meteohub,2013-04-03 22:02:00,
2013-04-03 15:07:00,66.0,34.5,30.09,East,93,2.0,9.0,31,0.00,,,0.00,meteohub,2013-04-03 22:07:00,
2013-04-03 15:12:00,66.2,34.7,30.09,NE,47,2.0,9.0,31,0.00,,,0.00,meteohub,2013-04-03 22:12:00,
2013-04-03 15:17:00,65.8,33.6,30.09,SSE,159,6.0,7.0,30,0.00,,,0.00,meteohub,2013-04-03 22:17:00,
2013-04-03 15:22:00,65.8,33.6,30.09,SSE,147,7.0,8.0,30,0.00,,,0.00,meteohub,2013-04-03 22:22:00,
2013-04-03 15:27:00,65.7,34.2,30.09,SW,222,2.0,10.0,31,0.00,,,0.00,meteohub,2013-04-03 22:27:00,
2013-04-03 15:37:00,66.4,34.0,30.09,SSE,152,3.0,10.0,30,0.00,,,0.00,meteohub,2013-04-03 22:37:00,
2013-04-03 15:47:00,65.8,35.2,30.08,East,96,1.0,10.0,32,0.00,,,0.00,meteohub,2013-04-03 22:47:00,
2013-04-03 15:52:00,65.8,34.3,30.08,SW,225,6.0,10.0,31,0.00,,,0.00,meteohub,2013-04-03 22:52:00,
2013-04-03 15:57:00,65.7,34.2,30.08,WSW,246,2.0,9.0,31,0.00,,,0.00,meteohub,2013-04-03 22:57:00,
2013-04-03 16:02:00,65.7,34.2,30.08,ESE,106,3.0,9.0,31,0.00,,,0.00,meteohub,2013-04-03 23:02:00,
2013-04-03 16:07:00,65.5,34.0,30.08,South,188,4.0,10.0,31,0.00,,,0.00,meteohub,2013-04-03 23:07:00,
2013-04-03 16:17:00,65.1,33.8,30.07,SE,127,2.0,10.0,31,0.00,,,0.00,meteohub,2013-04-03 23:17:00,
2013-04-03 16:27:00,64.6,33.3,30.07,ENE,68,2.0,8.0,31,0.00,,,0.00,meteohub,2013-04-03 23:27:00,
2013-04-03 16:32:00,64.4,34.7,30.07,East,79,2.0,9.0,33,0.00,,,0.00,meteohub,2013-04-03 23:32:00,
2013-04-03 16:37:00,64.0,34.3,30.07,South,188,6.0,9.0,33,0.00,,,0.00,meteohub,2013-04-03 23:37:00,
2013-04-03 16:42:00,63.3,34.5,30.07,ESE,111,3.0,9.0,34,0.00,,,0.00,meteohub,2013-04-03 23:42:00,
2013-04-03 16:52:00,62.6,37.2,30.07,East,96,3.0,8.0,39,0.00,,,0.00,meteohub,2013-04-03 23:52:00,
2013-04-03 16:57:00,62.1,38.1,30.07,SE,143,4.0,11.0,41,0.00,,,0.00,meteohub,2013-04-03 23:57:00,
2013-04-03 17:02:00,61.7,38.3,30.06,SW,226,1.0,11.0,42,0.00,,,0.00,meteohub,2013-04-04 00:02:00,
2013-04-03 17:12:00,61.3,38.7,30.06,ESE,117,4.0,11.0,43,0.00,,,0.00,meteohub,2013-04-04 00:12:00,
2013-04-03 17:22:00,60.6,38.7,30.07,SE,136,3.0,8.0,44,0.00,,,0.00,meteohub,2013-04-04 00:22:00,
2013-04-03 17:27:00,60.3,38.3,30.06,East,94,2.0,8.0,44,0.00,,,0.00,meteohub,2013-04-04 00:27:00,
2013-04-03 17:32:00,60.1,39.2,30.06,ESE,111,5.0,10.0,46,0.00,,,0.00,meteohub,2013-04-04 00:32:00,
2013-04-03 17:42:00,59.5,39.4,30.07,ESE,110,2.0,10.0,47,0.00,,,0.00,meteohub,2013-04-04 00:42:00,
2013-04-03 17:47:00,59.4,38.7,30.07,SSE,147,3.0,8.0,46,0.00,,,0.00,meteohub,2013-04-04 00:47:00,
2013-04-03 17:57:00,59.0,38.8,30.07,South,169,6.0,7.0,47,0.00,,,0.00,meteohub,2013-04-04 00:57:00,
2013-04-03 18:02:00,58.6,38.5,30.07,SE,143,3.0,7.0,47,0.00,,,0.00,meteohub,2013-04-04 01:02:00,
2013-04-03 18:12:00,57.9,37.8,30.07,ESE,115,2.0,10.0,47,0.00,,,0.00,meteohub,2013-04-04 01:12:00,
2013-04-03 18:17:00,57.7,37.6,30.07,SE,129,3.0,10.0,47,0.00,,,0.00,meteohub,2013-04-04 01:17:00,
2013-04-03 18:22:00,57.6,37.9,30.07,SSE,156,4.0,6.0,48,0.00,,,0.00,meteohub,2013-04-04 01:22:00,
2013-04-03 18:27:00,57.4,37.9,30.07,ESE,107,1.0,8.0,48,0.00,,,0.00,meteohub,2013-04-04 01:27:00,
2013-04-03 18:32:00,57.0,38.1,30.07,ESE,117,2.0,8.0,49,0.00,,,0.00,meteohub,2013-04-04 01:32:00,
2013-04-03 18:37:00,56.8,37.9,30.07,SE,127,2.0,8.0,49,0.00,,,0.00,meteohub,2013-04-04 01:37:00,
2013-04-03 18:42:00,56.5,37.6,30.07,SSE,160,2.0,7.0,49,0.00,,,0.00,meteohub,2013-04-04 01:42:00,
2013-04-03 18:47:00,56.3,37.9,30.07,SSE,155,1.0,8.0,50,0.00,,,0.00,meteohub,2013-04-04 01:47:00,
2013-04-03 18:52:00,56.1,37.8,30.07,WSW,248,2.0,8.0,50,0.00,,,0.00,meteohub,2013-04-04 01:52:00,
2013-04-03 18:57:00,55.8,37.4,30.07,SE,135,4.0,8.0,50,0.00,,,0.00,meteohub,2013-04-04 01:57:00,
2013-04-03 19:02:00,55.6,37.8,30.07,SE,124,5.0,8.0,51,0.00,,,0.00,meteohub,2013-04-04 02:02:00,
2013-04-03 19:07:00,55.4,37.0,30.07,South,169,5.0,8.0,50,0.00,,,0.00,meteohub,2013-04-04 02:07:00,
2013-04-03 19:17:00,55.0,36.7,30.07,SSE,166,3.0,8.0,50,0.00,,,0.00,meteohub,2013-04-04 02:17:00,
2013-04-03 19:27:00,54.9,37.6,30.07,SSW,201,1.0,7.0,52,0.00,,,0.00,meteohub,2013-04-04 02:27:00,
2013-04-03 19:37:00,54.5,36.7,30.07,SSE,156,2.0,7.0,51,0.00,,,0.00,meteohub,2013-04-04 02:37:00,
2013-04-03 19:42:00,54.3,37.0,30.08,ESE,114,2.0,7.0,52,0.00,,,0.00,meteohub,2013-04-04 02:42:00,
2013-04-03 19:52:00,54.3,36.1,30.07,SE,141,0.0,7.0,50,0.00,,,0.00,meteohub,2013-04-04 02:52:00,
2013-04-03 19:57:00,54.3,35.1,30.07,SSE,167,0.0,7.0,48,0.00,,,0.00,meteohub,2013-04-04 02:57:00,
2013-04-03 20:02:00,54.3,33.4,30.07,SE,127,1.0,6.0,45,0.00,,,0.00,meteohub,2013-04-04 03:02:00,
2013-04-03 20:07:00,54.3,32.9,30.08,SE,125,2.0,6.0,44,0.00,,,0.00,meteohub,2013-04-04 03:07:00,
2013-04-03 20:17:00,54.7,31.5,30.08,SSE,155,1.0,6.0,41,0.00,,,0.00,meteohub,2013-04-04 03:17:00,
2013-04-03 20:22:00,54.7,31.5,30.08,South,171,1.0,6.0,41,0.00,,,0.00,meteohub,2013-04-04 03:22:00,
2013-04-03 20:27:00,54.7,31.5,30.08,SE,141,2.0,7.0,41,0.00,,,0.00,meteohub,2013-04-04 03:27:00,
2013-04-03 20:32:00,54.7,30.9,30.08,SE,145,2.0,7.0,40,0.00,,,0.00,meteohub,2013-04-04 03:32:00,
2013-04-03 20:42:00,54.7,30.2,30.09,SSE,162,5.0,9.0,39,0.00,,,0.00,meteohub,2013-04-04 03:42:00,
2013-04-03 20:47:00,54.7,30.2,30.09,ESE,122,2.0,9.0,39,0.00,,,0.00,meteohub,2013-04-04 03:47:00,
2013-04-03 20:52:00,54.7,29.5,30.09,SE,143,1.0,9.0,38,0.00,,,0.00,meteohub,2013-04-04 03:52:00,
2013-04-03 21:02:00,54.7,29.5,30.09,SSE,162,3.0,9.0,38,0.00,,,0.00,meteohub,2013-04-04 04:02:00,
2013-04-03 21:07:00,54.9,29.7,30.09,ESE,103,3.0,7.0,38,0.00,,,0.00,meteohub,2013-04-04 04:07:00,
2013-04-03 21:12:00,54.9,30.4,30.09,ESE,117,3.0,7.0,39,0.00,,,0.00,meteohub,2013-04-04 04:12:00,
2013-04-03 21:17:00,54.9,29.7,30.09,South,179,2.0,7.0,38,0.00,,,0.00,meteohub,2013-04-04 04:17:00,
2013-04-03 21:22:00,54.9,29.1,30.09,WSW,248,5.0,8.0,37,0.00,,,0.00,meteohub,2013-04-04 04:22:00,
2013-04-03 21:27:00,54.9,29.1,30.09,SW,228,2.0,9.0,37,0.00,,,0.00,meteohub,2013-04-04 04:27:00,
2013-04-03 21:32:00,54.9,29.7,30.09,SSE,153,3.0,9.0,38,0.00,,,0.00,meteohub,2013-04-04 04:32:00,
2013-04-03 21:42:00,54.9,29.7,30.10,SE,131,2.0,9.0,38,0.00,,,0.00,meteohub,2013-04-04 04:42:00,
2013-04-03 21:47:00,54.7,29.5,30.10,SSE,160,4.0,9.0,38,0.00,,,0.00,meteohub,2013-04-04 04:47:00,
2013-04-03 21:57:00,54.7,27.5,30.10,ESE,110,2.0,8.0,35,0.00,,,0.00,meteohub,2013-04-04 04:57:00,
2013-04-03 22:07:00,54.3,27.3,30.10,SE,141,2.0,9.0,35,0.00,,,0.00,meteohub,2013-04-04 05:07:00,
2013-04-03 22:17:00,54.3,26.6,30.10,SSE,159,1.0,10.0,34,0.00,,,0.00,meteohub,2013-04-04 05:17:00,
2013-04-03 22:27:00,54.3,27.3,30.10,SSE,148,2.0,11.0,35,0.00,,,0.00,meteohub,2013-04-04 05:27:00,
2013-04-03 22:37:00,54.3,27.9,30.10,ESE,115,3.0,8.0,36,0.00,,,0.00,meteohub,2013-04-04 05:37:00,
2013-04-03 22:42:00,54.1,28.4,30.10,SE,128,2.0,8.0,37,0.00,,,0.00,meteohub,2013-04-04 05:42:00,
2013-04-03 22:47:00,54.1,28.4,30.10,ESE,117,2.0,9.0,37,0.00,,,0.00,meteohub,2013-04-04 05:47:00,
2013-04-03 22:52:00,54.1,29.1,30.09,ESE,110,4.0,9.0,38,0.00,,,0.00,meteohub,2013-04-04 05:52:00,
2013-04-03 23:02:00,54.0,28.9,30.10,ESE,117,4.0,8.0,38,0.00,,,0.00,meteohub,2013-04-04 06:02:00,
2013-04-03 23:07:00,53.8,28.8,30.10,SSE,148,2.0,9.0,38,0.00,,,0.00,meteohub,2013-04-04 06:07:00,
2013-04-03 23:12:00,53.8,28.8,30.10,SSE,166,3.0,9.0,38,0.00,,,0.00,meteohub,2013-04-04 06:12:00,
2013-04-03 23:17:00,53.8,28.8,30.10,South,170,4.0,9.0,38,0.00,,,0.00,meteohub,2013-04-04 06:17:00,
2013-04-03 23:27:00,53.8,30.6,30.10,SE,135,2.0,8.0,41,0.00,,,0.00,meteohub,2013-04-04 06:27:00,
2013-04-03 23:37:00,54.1,33.8,30.09,SE,145,3.0,8.0,46,0.00,,,0.00,meteohub,2013-04-04 06:37:00,
2013-04-03 23:47:00,54.7,34.3,30.09,SE,124,5.0,8.0,46,0.00,,,0.00,meteohub,2013-04-04 06:47:00,
2013-04-03 23:52:00,55.0,34.7,30.09,ESE,104,4.0,8.0,46,0.00,,,0.00,meteohub,2013-04-04 06:52:00,
2013-04-03 23:57:00,55.2,34.9,30.09,SSE,148,7.0,8.0,46,0.00,,,0.00,meteohub,2013-04-04 06:57:00,